Location: Gumont
(45.1612°N, 1.4150°E)
Time: 10:10:51
(UTC+00:00)

Daily predictions for brighter satellites

Satellite Brightness Start Highest point End
(mag) Time Altitude Azimuth Time Altitude Azimuth Time Altitude Azimuth
Meteor 1-31 Rocket 4.2 16:40:43 10° S 16:44:20 42° W 16:47:59 10° NNW
Cosmos 1428 Rocket 4.5 16:42:20 10° N 16:48:27 64° E 16:54:35 10° SSE
NOSS 2-2 (C) 4.4 16:44:53 10° NW 16:50:10 82° NE 16:57:39 10° SE
CZ-4B R/B 4.2 16:49:19 10° ESE 16:53:30 24° ENE 16:57:39 10° N
Cosmos 1092 Rocket 4.0 16:47:13 10° N 16:53:37 80° E 16:59:55 10° S
Cosmos 1898 Rocket 4.3 16:48:40 10° NNW 16:53:48 57° WSW 16:58:51 10° S
CZ-2D R/B 4.3 16:52:26 10° ESE 16:55:34 25° ENE 16:58:44 10° NNE
ATLAS CENTAUR R/B 3.3 16:46:08 10° SW 16:57:02 70° NW 17:01:23 10° NE
Meteor 2-21 4.4 16:51:07 10° N 16:57:10 66° ENE 17:03:09 10° SSE
USA 267 3.4 16:51:05 10° NE 16:57:35 66° SE 17:04:04 10° SW
Cosmos 1939 Rocket 2.9 16:54:06 10° SSE 16:58:07 58° ENE 17:02:07 10° N
USA 306 3.9 16:56:39 10° NW 17:00:24 29° NNE 17:03:51 11° ENE
Cosmos 1151 Rocket 3.6 16:56:39 10° SSE 17:00:39 38° E 17:04:42 10° NNE
Cosmos 1633 Rocket 3.6 16:58:09 10° N 17:02:12 35° ENE 17:06:14 10° SE
COSMO-SKYMED 1 4.1 16:59:34 10° NE 17:02:30 18° E 17:05:26 10° SE
Cosmos 1782 2.7 16:58:43 10° S 17:02:41 76° E 17:06:41 10° NNE
Cosmos 1666 3.1 17:00:31 10° N 17:03:59 36° ENE 17:07:25 10° SE
Cosmos 2360 Rocket 3.7 17:01:55 10° N 17:05:25 16° NE 17:08:17 12° ENE
ISS -2.7 17:02:53 10° WNW 17:06:12 49° SW 17:09:29 10° SE
SeaSat 1 4.4 17:05:28 10° N 17:09:17 23° NW 17:13:05 10° W
SL-08 R/B 4.0 17:05:34 10° N 17:10:08 54° WNW 17:14:37 10° SSW
NOAA 12 4.4 17:05:24 10° S 17:10:43 75° WSW 17:16:03 10° NNW
Cosmos 1818 3.7 17:06:13 10° NNW 17:11:36 53° NE 17:16:55 10° SE
CZ-2C R/B 3.5 17:12:15 10° SSW 17:15:12 18° S 17:18:07 10° SE
Meteor 2-14 Rocket 4.5 17:10:20 10° N 17:16:28 88° WSW 17:22:32 10° S
Cosmos 2279 Rocket 4.1 17:10:35 10° S 17:16:38 58° E 17:22:41 10° NNE
ATLAS 5 CENTAUR R/B 3.1 17:10:43 10° NW 17:17:37 30° NNE 17:19:39 17° ENE
Cosmos 841 Rocket 3.8 17:12:36 10° SSW 17:17:43 67° WNW 17:22:51 10° NNE
USA 307 3.8 17:17:13 10° NW 17:21:05 32° NNE 17:23:33 18° ENE
CZ-4C R/B 3.1 17:15:21 10° NW 17:22:40 89° NE 17:31:13 10° SE
Lacrosse 5 rocket 1.2 17:20:44 10° NW 17:24:38 61° NE 17:28:43 10° ESE
Cosmos 2208 Rocket 4.1 17:21:47 10° S 17:27:08 65° ESE 17:32:33 10° NNE
ATLAS 2AS CENTAUR R/B 4.4 17:22:20 10° NW 17:27:20 18° N 17:31:18 12° NE
Cosmos 2322 Rocket 2.9 17:23:37 10° N 17:28:44 33° NE 17:33:50 10° ESE
Cosmos 1933 Rocket 4.5 17:25:37 10° NNE 17:29:15 25° ENE 17:32:51 10° SE
AQUARIUS 4.2 17:24:57 10° SSE 17:29:26 86° WSW 17:33:57 10° NNW
Cosmos 1328 Rocket 3.6 17:26:19 10° S 17:30:40 57° E 17:35:02 10° NNE
Cosmos 2150 Rocket 4.2 17:25:49 10° N 17:30:48 45° ENE 17:35:49 10° SE
USA 234 3.3 17:24:28 10° ESE 17:30:56 67° NNE 17:37:25 10° NW
Cosmos 1666 Rocket 3.5 17:27:23 10° N 17:31:51 87° E 17:36:13 10° S
Cosmos 1980 Rocket 2.9 17:26:32 10° NNW 17:32:06 58° WSW 17:37:35 10° S
CORIOLIS 4.3 17:29:30 10° S 17:34:55 79° WSW 17:40:23 10° NNW
Cosmos 1470 Rocket 3.8 17:31:07 10° N 17:35:26 46° ENE 17:39:45 10° SSE
Cosmos 1544 3.7 17:32:12 10° N 17:35:30 32° ENE 17:38:46 10° SE
Cosmos 1867 4.5 17:31:27 10° S 17:36:08 30° ESE 17:38:27 22° ENE
Cosmos 1812 2.9 17:32:40 10° SSW 17:36:30 74° W 17:40:22 10° N
X-37B 1.7 17:34:23 10° SW 17:36:57 29° SSE 17:37:49 24° ESE
Cosmos 1125 Rocket 3.7 17:31:58 10° N 17:37:03 47° ENE 17:42:08 10° SE
PSLV R/B 3.6 17:33:51 10° SSE 17:37:33 85° ENE 17:41:20 10° NNW
DEBRIS 4.4 17:36:15 10° SSE 17:38:14 18° ESE 17:38:35 18° ESE
H-2A R/B 1.9 17:33:12 10° SSE 17:38:18 70° ENE 17:43:17 10° N
Cosmos 1634 Rocket 4.5 17:32:50 10° SSW 17:39:05 64° W 17:45:24 10° N
Okean O Rocket 2.0 17:36:02 10° SE 17:40:09 39° ENE 17:44:19 10° N
Meteor 2-8 Rocket 4.4 17:34:28 10° S 17:40:33 67° E 17:46:40 10° NNE
Meteor 1-10 Rocket 4.4 17:35:10 10° SSE 17:40:42 51° E 17:46:09 10° NNE
Meteor 1-11 Rocket 4.0 17:37:08 10° N 17:42:32 44° ENE 17:48:01 10° SE
USA 308 3.5 17:39:54 10° NW 17:43:55 39° NNE 17:45:21 29° ENE
SL-16 R/B 2.2 17:43:56 10° NNW 17:49:33 58° ENE 17:55:07 10° SE
ARGOS 3.2 17:44:57 10° SSE 17:50:11 55° ENE 17:55:28 10° N
SKYMED 2 3.6 17:47:47 18° NNE 17:50:53 54° E 17:55:08 10° S
Cosmos 2082 Rocket 3.2 17:45:35 10° SW 17:51:01 45° WNW 17:56:28 10° NNE
SMAP 4.4 17:49:22 10° S 17:53:45 42° W 17:58:11 10° NNW
deb Chang Zheng 4 3.5 17:51:26 10° SSE 17:55:41 64° ENE 17:59:57 10° N
COSMOS 2455 4.1 17:53:58 10° WSW 17:59:31 37° NW 18:04:54 11° NNE
Feng Yun 1-1 Rocket 4.5 17:59:27 10° SE 18:05:07 50° ENE 18:10:44 10° N
USA 305 3.0 18:04:11 10° NW 18:08:22 55° NNE 18:08:52 51° ENE
Cosmos 2333 Rocket 3.5 18:04:30 10° N 18:08:04 23° NNE 18:08:04 23° NNE
Cosmos 1356 Rocket 3.3 18:05:55 10° N 18:10:08 72° ENE 18:14:23 10° SSE
CZ-2C R/B 2.4 18:06:51 10° NNE 18:12:04 88° E 18:17:15 10° SSW
Cosmos 2219 Rocket 3.7 18:12:33 10° N 18:15:04 19° NNE 18:15:04 19° NNE
Aureole 3 Rocket 3.5 18:12:35 10° S 18:17:01 61° E 18:23:18 10° NNE
Cosmos 44 Rocket 4.2 18:12:53 10° NW 18:17:34 47° WSW 18:22:06 10° S
Cosmos 1515 Rocket 3.5 18:13:21 10° S 18:17:47 84° W 18:20:27 24° N
Cosmos 1655 Rocket 4.0 18:11:42 10° N 18:18:08 86° W 18:24:28 10° S
Cosmos 921 Rocket 3.6 18:16:15 10° SW 18:20:22 52° WNW 18:22:47 23° N
Spot 2 4.5 18:23:28 43° ESE 18:24:49 57° ENE 18:29:48 10° N
CZ-4B R/B 3.9 18:28:27 10° S 18:33:43 54° W 18:38:56 10° NNW
COSMO-SKYMED 1 3.5 18:36:23 22° N 18:38:55 47° WNW 18:43:04 10° SW
USA 267 3.8 18:37:47 32° NNE 18:40:29 50° NNW 18:46:44 10° W
USA 306 3.3 18:36:27 10° NW 18:39:52 56° NW 18:39:52 56° NW
Landsat 5 3.7 18:41:36 61° WNW 18:41:36 61° WNW 18:45:27 10° SSW
Meteor 1-27 Rocket 3.7 18:38:12 10° SSW 18:43:43 79° W 18:46:30 31° N
Cosmos 2360 Rocket 2.0 18:44:42 10° NNW 18:50:08 76° NNE 18:50:08 76° NNE
Cosmos 2237 4.3 18:48:07 10° NNW 18:53:51 74° WSW 18:55:53 41° S
CZ-2C R/B 3.5 18:50:55 10° SW 18:53:23 19° SSW 18:53:23 19° SSW
DMSP B5D2-2 4.3 19:00:33 60° SSW 19:00:33 60° SSW 19:04:48 10° SSW
USA 307 4.3 18:57:03 10° WNW 18:59:35 35° WNW 18:59:35 35° WNW
Lacrosse 5 rocket 3.6 19:00:24 10° WNW 19:03:26 21° SW 19:04:38 18° SSW
Cosmos 2322 Rocket 3.2 19:07:32 10° NW 19:12:55 44° WSW 19:17:09 16° S
USA 234 4.2 19:10:00 20° SSE 19:14:09 42° SW 19:20:19 10° WNW
Okean O Rocket 4.0 19:13:09 10° SW 19:16:38 22° W 19:20:08 10° NW
NOSS 3-4 (A) 4.3 19:11:10 10° NNW 19:16:20 47° N 19:16:20 47° N
NOSS 3-4 (C) 4.3 19:11:17 10° NNW 19:16:24 46° N 19:16:24 46° N
Cosmos 1867 4.3 19:14:13 10° WSW 19:19:09 48° WNW 19:19:09 48° WNW
ATLAS 2AS CENTAUR R/B 4.0 19:14:19 10° NNW 19:18:45 27° N 19:18:45 27° N
NOSS 3-3 (A) 4.3 19:20:58 10° SW 19:25:51 59° W 19:25:51 59° W
NOSS 3-3 (C) 4.3 19:21:04 10° SW 19:25:55 59° W 19:25:55 59° W
SL-16 R/B 4.4 19:28:52 10° NW 19:33:12 23° W 19:37:31 10° SSW
Cosmos 2333 Rocket 4.2 19:48:14 10° NNW 19:50:07 21° NW 19:50:07 21° NW
